FW9619 Weather Reports


time (UTC)temp
C
wind
direction
speed
KPH
gust
KPH
rain 1hr
cm
rain 24hr
cm
rain mn
cm
humidity
%
barometer
mb
20260505053043 17 194 3.2 8.0 0.00 0.00 0.00 78 1006.4
20260505051557 18 0 0.0 0.0 0.00 0.00 0.00 73 1006.4
20260505041537 21 0 0.0 11.3 0.00 0.00 0.00 62 1007.1
20260505040040 21 182 3.2 12.9 0.00 0.00 0.00 62 1007.1
20260505034534 21 184 4.8 17.7 0.00 0.00 0.00 60 1007.2
20260505033033 21 240 4.8 16.1 0.00 0.00 0.00 61 1007.2
20260505031540 21 207 4.8 8.0 0.00 0.00 0.00 61 1007.1
20260505030039 21 213 1.6 9.7 0.00 0.00 0.00 64 1007.0
20260505024544 21 0 0.0 6.4 0.00 0.00 0.00 64 1007.1
20260505023035 21 252 1.6 6.4 0.00 0.00 0.00 61 1006.9
20260505021539 21 0 0.0 4.8 0.00 0.00 0.00 61 1006.5
20260505020042 21 225 1.6 6.4 0.00 0.00 0.00 61 1006.1
20260505014540 21 154 1.6 6.4 0.00 0.00 0.00 63 1005.9
20260505013035 22 170 3.2 6.4 0.00 0.00 0.00 61 1005.6
20260505011534 23 218 1.6 6.4 0.00 0.00 0.00 58 1005.5
20260505010038 23 188 1.6 11.3 0.00 0.00 0.00 54 1005.2
20260505004541 24 196 4.8 14.5 0.00 0.00 0.00 52 1005.1
20260505003038 25 222 6.4 22.5 0.00 0.00 0.00 51 1005.0
20260505001538 25 215 8.0 22.5 0.00 0.00 0.00 50 1004.9
20260505000043 25 205 8.0 24.1 0.00 0.00 0.00 48 1005.0
20260504234537 26 184 12.9 27.4 0.00 0.00 0.00 47 1005.1
20260504233043 26 192 16.1 32.2 0.00 0.00 0.00 47 1005.1
20260504231544 26 190 11.3 24.1 0.00 0.00 0.00 47 1005.2
20260504230050 26 227 8.0 30.6 0.00 0.00 0.00 47 1005.4
20260504224537 26 236 12.9 30.6 0.00 0.00 0.00 47 1005.4
20260504223038 26 216 12.9 37.0 0.00 0.00 0.00 45 1005.6
20260504221533 27 212 11.3 37.0 0.00 0.00 0.00 46 1005.6
20260504220042 27 248 14.5 29.0 0.00 0.00 0.00 44 1005.5
20260504214538 27 217 14.5 40.2 0.00 0.00 0.00 44 1005.7
20260504213038 27 228 12.9 33.8 0.00 0.00 0.00 42 1005.6
20260504211539 27 169 12.9 29.0 0.00 0.00 0.00 43 1005.6
20260504210042 27 209 19.3 40.2 0.00 0.00 0.00 44 1005.6
20260504204547 27 188 17.7 37.0 0.00 0.00 0.00 44 1006.0
20260504203053 27 206 14.5 35.4 0.00 0.00 0.00 44 1006.2
20260504201538 27 234 16.1 40.2 0.00 0.00 0.00 44 1006.3
20260504200038 27 225 16.1 35.4 0.00 0.00 0.00 44 1006.3
20260504194537 27 226 17.7 38.6 0.00 0.00 0.00 44 1006.4
20260504193041 26 225 20.9 41.8 0.00 0.00 0.00 44 1006.5
20260504191541 26 186 17.7 32.2 0.00 0.00 0.00 47 1006.7
20260504190054 26 203 14.5 32.2 0.00 0.00 0.00 45 1006.9
20260504184538 26 227 11.3 38.6 0.00 0.00 0.00 45 1007.2
20260504183035 26 221 6.4 20.9 0.00 0.00 0.00 47 1007.3
20260504181535 26 209 12.9 32.2 0.00 0.00 0.00 47 1007.3
20260504180036 26 245 14.5 33.8 0.00 0.00 0.00 46 1007.4
20260504174540 26 207 12.9 32.2 0.00 0.00 0.00 44 1007.4
20260504173038 26 204 16.1 43.5 0.00 0.00 0.00 44 1007.3
20260504171538 26 208 16.1 38.6 0.00 0.00 0.00 46 1007.3
20260504081537 18 189 6.4 17.7 0.00 0.00 0.00 58 1010.2